Regional Weather Roundup
Issued by NWS

Home | Current Version | Previous Version | Graphics & Text | Print | Product List | Glossary On
Versions: 1 2 3 4 5 6 7 8 9 10 11 12 13 14 15 16 17 18 19 20 21 22 23 24 25 26 27 28 29 30 31 32 33 34 35 36 37 38 39 40 41 42 43 44 45 46 47 48 49 50
000
ASUS43 KMPX 170201
RWRMN
WEATHER ROUNDUP FOR MINNESOTA
NATIONAL WEATHER SERVICE TWIN CITIES/CHANHASSEN MN
900 PM CDT MON OCT 16 2017


NOTE: "FAIR" INDICATES FEW OR NO CLOUDS BELOW 12,000 FEET WITH NO
SIGNIFICANT WEATHER AND/OR OBSTRUCTIONS TO VISIBILITY. N/A MEANS
CURRENT SKY AND/OR WEATHER CONDITIONS ARE NOT AVAILABLE.

MNZ060>063-068>070-170300-
   Twin Cities Metro

CITY           SKY/WX    TMP DP  RH WIND       PRES   REMARKS
TWIN CITIES    PTCLDY    61  37  41 SW9       29.97F
ST PAUL        CLEAR     55  39  54 SE5       29.98F
CRYSTAL        CLEAR     54  36  50 S6        29.95F
BLAINE         PTCLDY    54  39  58 S6        29.95F
LAKEVILLE      CLEAR     54  37  54 S6        29.98F
EDEN PRAIRIE   CLEAR     56  38  50 SW9       29.96F
SOUTH ST PAUL  CLEAR     57  37  46 S9        29.97F
LAKE ELMO      FAIR      54  37  54 S7        29.98F
$$
MNZ001>005-007-008-013>017-022>024-027-028-170300-
   Northwest Minnesota

CITY           SKY/WX    TMP DP  RH WIND       PRES   REMARKS
BEMIDJI        CLEAR     50  37  61 W6        29.86S
HALLOCK        CLOUDY    48  30  49 W7        29.83R
ROSEAU           N/A     54  39  58 SW7       29.82R
WARROAD        CLOUDY    54  39  58 SW7       29.81R
CROOKSTON      CLOUDY    54  36  50 W9        29.87S
FOSSTON        CLOUDY    45  30  57 CALM      29.89R
DETROIT LAKES  CLOUDY    55  41  58 W6        29.91S
MOORHEAD       CLOUDY    54  41  62 SW5       29.90S
PARK RAPIDS    CLEAR     49  39  68 W7        29.88S
MAHNOMEN       FAIR      51  37  60 W6        29.89R
$$
MNZ006-009>011-018-025>026-170300-
   North Central Minnesota

CITY           SKY/WX    TMP DP  RH WIND       PRES   REMARKS
BAUDETTE       PTCLDY    55  37  50 SW8       29.79F
FLAG ISLAND    PTCLDY    54  37  54 SW9       29.76R
INTL FALLS     PTCLDY    46  35  65 SW6       29.79F
WASKISH        CLOUDY    55  43  62 SW9       29.83S
BIG FORK       CLOUDY    54  39  58 SW6       29.85S
LONGVILLE      CLEAR     54  37  54 SW5       29.87F
GRAND RAPIDS   CLEAR     54  38  54 S6        29.88F
CRANE LAKE     PTCLDY    52  34  50 S5        29.83S
ORR            CLOUDY    52  34  50 S3        29.81S
COOK           CLOUDY    54  37  54 S7        29.84F
WALKER         FAIR      55  38  52 SW6       29.87S
$$
MNZ012-019>021-037-170300-
   Northeast Minnesota

CITY           SKY/WX    TMP DP  RH WIND       PRES   REMARKS
DULUTH         CLEAR     51  36  56 SW12      29.89F
ELY            PTCLDY    52  34  50 SW8       29.84F
HIBBING        CLEAR     47  35  63 SW3       29.87S
EVELETH        CLOUDY    50  30  46 SW6       29.88F
DULUTH HARBOR  CLEAR     55  41  58 W7        29.91S
TWO HARBORS    CLEAR     54  39  58 SW6       29.88F
SILVER BAY     CLEAR     52  37  58 SW5       29.87F
GRAND MARAIS     N/A     48  44  86 CALM      29.88F
G MARAIS ARPRT CLEAR     46  37  71 S6        29.88F
$$
MNZ029>031-032-039>041-046>048-054>057-064-170300-
   West Central Minnesota

CITY           SKY/WX    TMP DP  RH WIND       PRES   REMARKS
FERGUS FALLS   CLEAR     52  41  66 SW5       29.92S
WHEATON        CLEAR     54  39  58 SW7       29.94S
MORRIS         CLEAR     55  41  58 W8        29.93S
ALEXANDRIA     CLEAR     52  40  63 SW7       29.95R
ELBOW LAKE     FAIR      48  40  74 W7        29.93S
WADENA         CLEAR     52  39  62 SW6       29.90F
GLENWOOD       CLEAR     50  39  66 SW8       29.95S
APPLETON       CLEAR     54  39  58 SW6       29.95R
BENSON         CLEAR     48  39  71 W6        29.96S
ORTONVILLE     CLEAR     52  41  66 W3        29.95R
MADISON        CLEAR     57  43  58 W5        29.95S
WILLMAR        FAIR      54  39  58 SW5       29.96S
$$
MNZ033>034-036-042>043-049>051-058-059-170300-
   Central Minnesota

CITY           SKY/WX    TMP DP  RH WIND       PRES   REMARKS
ST CLOUD       CLEAR     52  39  61 S7        29.93F
SAUK CENTRE    FAIR      53  39  60 SW6       29.94R
PAYNESVILLE    CLEAR     51  40  67 W5        29.95S
AITKIN         CLEAR     50  37  62 S7        29.88F
PINE RIVER     CLEAR     45  36  70 CALM      29.92F
BRAINERD       CLEAR     51  37  58 SW8       29.91S
STAPLES        CLEAR     52  37  58 SW7       29.91S
LONG PRAIRIE   FAIR      52  37  58 S6        29.94R
LITTLE FALLS   CLEAR     52  30  43 CALM      29.93R
LITCHFIELD     CLEAR     55  39  54 CALM      29.95F
BUFFALO        CLEAR     56  37  47 S6        29.96F
MAPLE LAKE     CLEAR     56  40  56 S5        29.95F
HUTCHINSON     CLOUDY    53  40  60 S5        29.97F
$$
MNZ037-044-045-052-053-170300-
   East Central Minnesota

CITY           SKY/WX    TMP DP  RH WIND       PRES   REMARKS
PRINCETON      CLEAR     54  39  58 S5        29.93F
MORA           CLEAR     50  37  62 CALM      29.94F
CAMBRIDGE      CLEAR     55  39  54 S6        29.93F
RUSH CITY      MOCLDY    51  38  60 S6        29.94F
MOOSE LAKE     CLEAR     48  36  61 CALM      29.89F
HINCKLEY       FAIR      50  37  62 S3        29.93F
CLOQUET        CLEAR     52  34  50 S9        29.90F
MCGREGOR       CLEAR     52  37  58 S7        29.90F
$$
MNZ071>073-080-081-089-090-097-098-170300-
   Southwest Minnesota

CITY           SKY/WX    TMP DP  RH WIND       PRES   REMARKS
MONTEVIDEO     CLEAR     54  34  47 W3        29.95S
GRANITE FALLS  CLEAR     48  41  77 S9        29.97F
CANBY          CLEAR     58  42  55 W8        29.97S
MARSHALL       CLEAR     54  39  57 W8        29.97R
REDWOOD FALLS  PTCLDY    55  38  52 S12       29.96F
OLIVIA         CLEAR     55  39  54 S8        29.95F
PIPESTONE      PTCLDY    55  39  54 W3        30.01R
WORTHINGTON    PTCLDY    58  39  49 S14G20    30.01F
JACKSON        CLOUDY    59  37  44 S15       30.02F
TRACY          PTCLDY    61  40  47 SW9       29.97F
SLAYTON        PTCLDY    59  39  47 S10       30.00S
$$
MNZ065>067-074>077-082>085-091>093-170300-
   South Central Minnesota

CITY           SKY/WX    TMP DP  RH WIND       PRES   REMARKS
MANKATO        PTCLDY    57  37  47 S8        30.00F
NEW ULM          N/A     57  37  47 S9        29.98S
ST JAMES       PTCLDY    59  39  47 S10       30.00F
FAIRMONT       CLOUDY    60  39  45 S17       30.01F
GLENCOE        CLEAR     56  38  50 S5        29.96S
FARIBAULT      CLEAR     54  37  54 S8        30.01F
OWATONNA       CLOUDY    55  39  54 S12       30.02F
WASECA         PTCLDY    55  37  50 S9G16     30.02F
ALBERT LEA     PTCLDY    61  39  44 S8        30.05F
$$
MNZ078>079-086>088-094>096-170300-
   Southeast Minnesota

CITY           SKY/WX    TMP DP  RH WIND       PRES   REMARKS
ROCHESTER      CLOUDY    50  39  66 S12       30.06F
RED WING       CLEAR     59  34  38 SW5       30.00F
STANTON        CLEAR     56  38  50 S10       29.98F
DODGE CENTER   CLOUDY    55  36  47 S15       30.03F
WINONA         CLEAR     55  37  50 CALM      30.05F
AUSTIN         CLOUDY    54  37  54 S9        30.06S
PRESTON        CLOUDY    54  36  49 S14       30.08S
$$
ABBREVIATIONS USED IN REMARKS
   TC - TEMPERATURES IN CELSIUS
  WCI - WIND CHILL INDEX
   HX - HEAT INDEX
  VSB - VISIBILITY
$$




USA.gov is the U.S. government's official web portal to all federal, state and local government web resources and services.